Regional Weather Roundup
Issued by NWS Green Bay, WI

Home | Current Version | Previous Version | Graphics & Text | Print | Product List | Glossary Off
Versions: 1 2 3 4 5 6 7 8 9 10 11 12 13 14 15 16 17 18 19 20 21 22 23 24 25 26 27 28 29 30 31 32 33 34 35 36 37 38 39 40 41 42 43 44 45 46 47 48 49 50

000
ASUS43 KGRB 042010
RWRGRB

NORTH-CENTRAL AND NORTHEAST WISCONSIN REGIONAL WEATHER ROUNDUP
NATIONAL WEATHER SERVICE GREEN BAY WI
300 PM CDT MON MAY 04 2015

WIZ005-009-010>012-018-019-042100-
NORTH CENTRAL WISCONSIN

CITY           SKY/WX    TMP DP  RH WIND       PRES   REMARKS
IRONWOOD       SUNNY     61  25  25 NW8       30.18S
MANITOWISH WTR SUNNY     62  26  25 N7        30.19S
ARBOR VITAE    SUNNY     63  26  24 NW10      30.18S
EAGLE RIVER    MOSUNNY   64  23  21 NW10      30.17S
LAND O LAKES   MOSUNNY   64  24  22 W7        30.19S
RHINELANDER    MOSUNNY   64  31  28 CALM      30.18S
PHILLIPS       SUNNY     64  29  27 N8        30.17S
ANTIGO         MOSUNNY   65  35  32 N9        30.16S
TOMAHAWK       SUNNY     65  28  25 CALM      30.18S
MERRILL        SUNNY     66  31  26 N6        30.15F
$$

WIZ013-073-042100-
NORTHEAST WISCONSIN

CITY           SKY/WX    TMP DP  RH WIND       PRES   REMARKS
IRON MOUNTAIN  SUNNY     68  29  23 N14       30.14S
MARINETTE      SUNNY     63  39  42 E12       30.15R
OCONTO         SUNNY     66  42  41 E13       30.14R
$$

WIZ017-030-035>037-045-042100-
CENTRAL WISCONSIN

CITY           SKY/WX    TMP DP  RH WIND       PRES   REMARKS
MEDFORD        SUNNY     66  33  29 NW8       30.17S
WAUSAU         SUNNY     68  32  26 CALM      30.14S
MOSINEE        SUNNY     68  34  28 N6        30.16S
MARSHFIELD     SUNNY     70  33  25 N8        30.16S
WISC RAPIDS    SUNNY     71  30  21 NE6       30.15S
STEVENS POINT  SUNNY     68  32  26 W9        30.15S
WAUPACA        SUNNY     74  36  24 CALM      30.13S
SHAWANO        SUNNY     74  32  20 CALM      30.13S
CLINTONVILLE   SUNNY     72  34  25 CALM      30.13S
$$

WIZ038-039-048-051-042100-
FOX VALLEY

CITY           SKY/WX    TMP DP  RH WIND       PRES   REMARKS
NWS GREEN BAY  SUNNY     74  40  29 N10       30.13R
APPLETON       MOSUNNY   70  39  32 NE8       30.14S
OSHKOSH        MOSUNNY   70  42  36 NE6       30.14R
FOND DU LAC    MOSUNNY   72  43  35 NE8       30.14R
$$

WIZ022-050-052-042100-
EAST CENTRAL WISCONSIN

CITY           SKY/WX    TMP DP  RH WIND       PRES   REMARKS
STURGEON BAY   SUNNY     64  43  45 E10       30.18R
MANITOWOC      MOSUNNY   64  43  46 E10       30.16R
SHEBOYGAN      MOSUNNY   66  41  40 E12       30.16R
$$

LMZ563-521-522-541>543-042100-
LAKESHORE

STATION/POSITION TIME  TEMP    WIND        PRES    VSBY  WAVE
                       AIR SEA DIR/SP/G                  HT/PER
                 (UTC) (F)     (DEG/KT/KT) (MB)    (MI)  (FT/S)
SHEBOYGAN LKSHOR 2000   51     100/  4/  7 1022.1R
KEWAUNEE LKSHORE 2000   52      50/  8/ 10 1020.5R
NORTHPORT PIER   2000   53     160/  3/  5 1021.3S
SISTER BAY LKSHO 1900   66      20/ 14/ 17   N/A
CHAMBERS ISLAND  2000   59      60/ 10/ 14 1021.0S
MENOMINEE LKSHOR 2000   57      60/ 11/ 13 1021.3S
$$



USA.gov is the U.S. government's official web portal to all federal, state and local government web resources and services.